Location: Saginaw
(43.4195°N, 83.9508°W)
Time: 06:58:36
(UTC-04:00)

Daily predictions for brighter satellites

Satellite Brightness Start Highest point End
(mag) Time Altitude Azimuth Time Altitude Azimuth Time Altitude Azimuth
METEOR-M 4.3 20:33:00 10° SSE 20:38:21 84° WSW 20:43:44 10° NNW
FREGAT/IRIS 4.4 20:39:42 10° SSW 20:42:38 37° W 20:45:35 10° NNW
Cosmos 2150 Rocket 4.3 20:39:39 10° N 20:44:39 49° ENE 20:49:39 10° SE
Tiangong 1 1.3 20:43:28 10° W 20:46:33 58° SSW 20:49:36 10° ESE
Cosmos 1697 Rocket 3.0 20:41:40 10° S 20:46:59 43° ESE 20:52:17 10° NE
Cosmos 2123 Rocket 4.0 20:42:04 10° N 20:48:17 89° ENE 20:54:28 10° S
Resurs 1-3 3.8 20:43:55 10° S 20:48:19 81° W 20:52:43 10° NNW
Cosmos 1743 4.3 20:47:31 10° SE 20:50:12 18° E 20:52:53 10° NE
Cosmos 1898 Rocket 3.6 20:49:43 10° NNW 20:55:00 64° ENE 21:00:12 10° SSE
SL-16 R/B 3.9 21:00:03 11° ESE 21:01:32 12° E 21:03:38 10° ENE
Cosmos 468 Rocket 4.0 21:00:32 10° S 21:05:33 59° ESE 21:10:36 10° NNE
BREEZE-M DEB (TANK) 4.2 21:03:46 10° SW 21:07:48 74° SE 21:22:37 10° ENE
Cosmos 841 Rocket 4.3 21:05:40 10° SSE 21:10:02 28° E 21:14:25 10° NE
Cosmos 1980 Rocket 2.5 21:06:08 10° S 21:11:26 42° ESE 21:16:46 10° NE
RESURS DK-1 2.3 21:10:15 10° NNW 21:14:25 77° ENE 21:18:10 12° SSE
Resurs 01 Rocket 3.6 21:13:45 10° SSW 21:17:40 30° W 21:21:36 10° NW
H-2A R/B 3.0 21:15:14 10° S 21:19:07 74° WSW 21:23:05 10° NNW
Cosmos 1814 Rocket 4.0 21:14:11 10° S 21:19:28 67° ESE 21:24:43 10° NNE
FENGYUN 3A 4.0 21:15:55 10° S 21:21:15 70° WSW 21:26:36 10° NNW
Cosmos 1656 3.9 21:16:27 10° SSW 21:22:03 74° WNW 21:27:37 10° NNE
Cosmos 1153 Rocket 4.5 21:16:01 10° S 21:22:12 89° E 21:28:22 10° N
Cosmos 1726 Rocket 4.3 21:24:43 17° SE 21:27:20 31° E 21:31:14 10° NNE
Cosmos 1666 3.9 21:29:44 22° E 21:29:58 23° E 21:32:58 10° NE
YAOGAN 6 4.4 21:30:59 16° ENE 21:31:20 17° ENE 21:33:45 10° NNE
Cosmos 2263 Rocket 3.7 21:29:58 10° N 21:34:06 21° NE 21:36:35 16° E
Iridium 4 Rocket 3.6 21:32:15 10° N 21:37:09 67° W 21:41:36 10° S
Lacrosse 5 2.5 21:33:22 10° NW 21:38:16 50° SW 21:41:56 17° SSE
Cosmos 1802 Rocket 4.1 21:33:56 10° S 21:40:13 63° E 21:46:35 10° NNE
Cosmos 1500 3.8 21:37:26 10° SSW 21:41:09 57° W 21:44:54 10° N
Cosmos 1825 Rocket 3.5 21:36:49 10° N 21:41:14 71° E 21:44:12 20° SSE
Cosmos 2227 Rocket 4.5 21:37:03 10° NW 21:41:17 22° W 21:45:31 10° SSW
Cosmos 2016 Rocket 4.0 21:39:02 10° SSE 21:44:59 57° E 21:51:04 10° NNE
Cosmos 1340 2.5 21:41:57 10° N 21:45:45 73° E 21:47:32 29° SSE
Cosmos 2322 Rocket 2.8 21:43:34 21° SSE 21:46:18 31° ESE 21:51:12 10° NE
SJ-11-01 4.2 21:43:53 16° SSE 21:47:36 89° ENE 21:52:18 10° NNW
SPOT 5 3.4 21:47:47 29° ESE 21:49:35 40° ENE 21:54:00 10° N
Envisat 2.9 21:49:39 24° SSE 21:52:45 71° ENE 21:57:49 10° N
Cosmos 1937 Rocket 4.1 21:48:13 10° NNW 21:53:23 56° WSW 21:58:05 13° S
Cosmos 1953 Rocket 3.5 21:49:05 10° N 21:53:33 71° E 21:55:42 30° SSE
Cosmos 2228 3.8 21:55:49 31° E 21:55:49 31° E 21:59:21 10° NNE
Cosmos 2297 Rocket 4.3 21:51:39 10° NW 21:56:01 23° WSW 22:00:23 10° SSW
H-2A R/B 2.2 21:55:01 39° ESE 21:56:05 50° ENE 22:00:08 10° N
Cosmos 2173 Rocket 4.0 21:50:25 10° S 21:56:47 87° W 22:03:08 10° N
USA 186 4.1 21:54:47 10° SW 21:57:01 19° W 21:59:10 10° NW
Meteor 2-9 Rocket 4.2 21:57:29 24° SSE 22:00:32 51° E 22:05:44 10° NNE
Cosmos 990 Rocket 4.3 21:55:42 10° NNW 22:00:55 65° WSW 22:04:27 20° S
Terra 3.9 22:03:43 13° ENE 22:03:44 13° ENE 22:05:57 10° NNE
CZ-4 DEB 3.7 22:03:21 28° SSW 22:04:35 44° W 22:07:37 10° NNW
Meteor 1-15 Rocket 4.5 22:02:12 27° SSE 22:05:14 52° E 22:10:53 10° NNE
Cosmos 2360 4.1 22:00:10 10° SSW 22:05:53 82° ESE 22:11:39 10° NNE
Cosmos 2227 4.4 22:03:34 10° NNW 22:09:18 72° WSW 22:12:25 28° S
Meteor 1-21 4.4 22:05:30 10° NNW 22:11:17 74° W 22:15:22 20° S
Cosmos 1758 Rocket 3.4 22:07:26 10° N 22:11:49 86° W 22:13:13 42° S
ERS-1 Rocket 3.4 22:08:47 19° S 22:12:20 60° WSW 22:17:20 10° NNW
Cosmos 1864 Rocket 4.4 22:10:22 27° SSE 22:13:46 62° E 22:19:48 10° NNE
Cosmos 405 Rocket 3.9 22:13:27 10° N 22:15:53 28° NE 22:15:53 28° NE
BREEZE-M DEB (TANK) 2.0 22:14:52 10° WNW 22:17:15 77° SSW 22:17:23 75° S
Tiangong 1 3.5 22:20:28 10° WSW 22:21:38 15° SW 22:21:38 15° SW
Cosmos 1939 Rocket 3.9 22:23:17 27° SSW 22:25:05 45° W 22:29:07 10° NNW
H-2A R/B 3.2 22:25:29 25° ENE 22:25:29 25° ENE 22:29:15 10° N
deb Chang Zheng 4 3.5 22:20:58 10° NNE 22:25:28 90° S 22:26:46 46° SSW
Cosmos 836 Rocket 4.4 22:20:22 10° SSW 22:25:39 89° WNW 22:31:01 10° NNE
Cosmos 1743 4.5 22:22:17 10° SW 22:25:48 32° WNW 22:29:22 10° N
Cosmos 1763 Rocket 4.1 22:21:19 10° SW 22:26:18 54° WNW 22:31:17 10° NNE
Tsikada Rocket 3.9 22:21:20 10° N 22:27:48 82° E 22:30:24 39° SSE
SL-08 RB Rocket 4.3 22:32:11 43° ENE 22:32:11 43° ENE 22:36:15 10° N
ARGOS 3.1 22:39:04 62° ESE 22:39:36 66° ENE 22:44:57 10° N
USA 215 4.1 22:37:02 27° ENE 22:40:05 42° NNE 22:46:09 10° NW
Cosmos 1816 Rocket 4.4 22:35:45 10° N 22:42:10 84° E 22:43:53 52° SSE
Cosmos 2058 Rocket 3.8 22:40:58 32° SW 22:42:48 53° WNW 22:47:15 10° N
Cosmos 1125 Rocket 3.7 22:38:08 10° NNW 22:43:19 67° WSW 22:44:17 55° SSW
SPOT 1/Viking Rocket 3.4 22:44:10 73° ESE 22:44:34 78° ENE 22:49:47 10° N
SL-16 R/B 2.1 22:41:43 29° SSW 22:44:44 88° ESE 22:50:27 10° NNE
NOAA 11 4.0 22:44:17 67° ESE 22:44:51 74° ENE 22:50:19 10° N
Cosmos 1844 Rocket 4.4 22:41:17 10° N 22:45:02 18° NE 22:45:36 18° NE
Cosmos 1725 Rocket 4.1 22:42:59 24° SSW 22:46:54 73° W 22:53:11 10° N
MetOp-B 4.3 22:46:30 51° SSW 22:47:44 69° WSW 22:53:05 10° NNW
Cosmos 2098 Rocket 4.3 22:43:33 11° SSW 22:49:53 60° W 22:55:14 10° N
ASTEX 1 4.0 22:45:09 10° N 22:50:03 56° W 22:51:52 36° SW
Cosmos 1980 Rocket 3.9 22:50:30 10° WSW 22:55:33 32° NW 23:00:38 10° N
Cosmos 2360 Rocket 3.6 22:58:32 25° NE 22:58:32 25° NE 23:01:05 10° NE
Cosmos 540 Rocket 3.3 22:55:48 85° W 22:55:53 86° WNW 23:01:03 10° NNE
YAOGAN 6 4.4 23:05:28 31° WNW 23:05:28 31° WNW 23:08:05 10° NNW
Cosmos 2233 Rocket 4.0 23:06:51 59° SSW 23:08:05 80° W 23:14:23 10° N
Cosmos 372 Rocket 4.4 23:08:54 10° NNW 23:13:40 57° W 23:13:40 57° W
Cosmos 2263 Rocket 2.3 23:13:02 10° NNW 23:18:16 68° W 23:18:16 68° W
Cosmos 371 Rocket 4.2 23:20:22 44° N 23:20:22 44° N 23:23:46 10° NNE
Cosmos 2322 Rocket 3.4 23:25:05 11° SW 23:30:12 40° WNW 23:35:30 10° NNE
CZ-4B R/B 4.4 23:34:18 10° N 23:38:03 43° NW 23:38:03 43° NW
Terra 3.1 23:42:36 39° NNW 23:42:36 39° NNW 23:45:36 10° NNW
Meteor 2-5 Rocket 4.4 23:39:40 10° NNW 23:45:04 49° W 23:45:04 49° W
Meteor 1-24 Rocket 4.2 23:46:21 10° NNW 23:51:23 61° NW 23:51:23 61° NW
